| time (UTC) | temp C | wind direction | speed KPH | gust KPH | rain 1hr cm | rain 24hr cm | rain mn cm | humidity % | barometer mb |
| 20260508144523 | 10 | 242 | 20.9 | 33.8 | 0.00 | 0.05 | 0.00 | 71 | 1002.4 |
| 20260508143010 | 10 | 240 | 24.1 | 43.5 | 0.00 | 0.05 | 0.00 | 71 | 1002.3 |
| 20260508141512 | 10 | 260 | 17.7 | 37.0 | 0.00 | 0.05 | 0.00 | 72 | 1002.2 |
| 20260508140019 | 10 | 259 | 14.5 | 40.2 | 0.00 | 0.05 | 0.00 | 72 | 1002.3 |
| 20260508134507 | 9 | 256 | 30.6 | 48.3 | 0.00 | 0.05 | 0.00 | 73 | 1002.4 |
| 20260508133143 | 9 | 253 | 17.7 | 35.4 | 0.00 | 0.05 | 0.00 | 75 | 1002.3 |
| 20260508131503 | 8 | 246 | 14.5 | 30.6 | 0.00 | 0.05 | 0.00 | 76 | 1002.3 |
| 20260508130002 | 8 | 278 | 16.1 | 30.6 | 0.00 | 0.05 | 0.00 | 77 | 1002.2 |
| 20260508124559 | 8 | 249 | 14.5 | 35.4 | 0.00 | 0.05 | 0.00 | 78 | 1002.1 |
| 20260508123115 | 8 | 280 | 14.5 | 35.4 | 0.00 | 0.05 | 0.00 | 78 | 1001.9 |
| 20260508121606 | 8 | 242 | 12.9 | 45.1 | 0.00 | 0.05 | 0.00 | 79 | 1001.5 |
| 20260508120107 | 8 | 238 | 19.3 | 37.0 | 0.00 | 0.05 | 0.00 | 81 | 1001.4 |
| 20260508114559 | 8 | 287 | 14.5 | 35.4 | 0.00 | 0.05 | 0.00 | 82 | 1001.3 |
| 20260508113056 | 7 | 254 | 14.5 | 35.4 | 0.00 | 0.05 | 0.00 | 84 | 1001.1 |
| 20260508111550 | 7 | 244 | 11.3 | 40.2 | 0.00 | 0.05 | 0.00 | 85 | 1001.0 |
| 20260508110044 | 7 | 257 | 14.5 | 33.8 | 0.00 | 0.05 | 0.00 | 86 | 1000.9 |
| 20260508104545 | 7 | 263 | 16.1 | 37.0 | 0.00 | 0.05 | 0.00 | 87 | 1000.7 |
| 20260508103054 | 7 | 267 | 11.3 | 37.0 | 0.00 | 0.05 | 0.00 | 88 | 1000.6 |
| 20260508101544 | 7 | 241 | 19.3 | 35.4 | 0.00 | 0.05 | 0.00 | 88 | 1000.4 |
| 20260508100036 | 7 | 272 | 11.3 | 29.0 | 0.00 | 0.05 | 0.00 | 89 | 1000.1 |
| 20260508094535 | 7 | 264 | 12.9 | 33.8 | 0.00 | 0.05 | 0.00 | 90 | 999.8 |
| 20260508093039 | 7 | 235 | 11.3 | 29.0 | 0.00 | 0.05 | 0.00 | 91 | 999.6 |
| 20260508091535 | 7 | 253 | 8.0 | 37.0 | 0.00 | 0.05 | 0.00 | 89 | 999.5 |
| 20260508090030 | 8 | 309 | 16.1 | 41.8 | 0.00 | 0.05 | 0.00 | 85 | 999.5 |
| 20260508084528 | 8 | 254 | 16.1 | 49.9 | 0.00 | 0.05 | 0.00 | 83 | 999.3 |
| 20260508083032 | 8 | 223 | 17.7 | 38.6 | 0.00 | 0.05 | 0.00 | 82 | 999.4 |
| 20260508081526 | 8 | 264 | 20.9 | 40.2 | 0.00 | 0.05 | 0.00 | 81 | 999.4 |
| 20260508080025 | 8 | 282 | 17.7 | 29.0 | 0.00 | 0.05 | 0.00 | 82 | 999.4 |
| 20260508074525 | 8 | 253 | 12.9 | 29.0 | 0.00 | 0.10 | 0.00 | 84 | 999.3 |
| 20260508073026 | 8 | 266 | 19.3 | 45.1 | 0.00 | 0.10 | 0.00 | 86 | 999.5 |
| 20260508071520 | 8 | 257 | 17.7 | 37.0 | 0.00 | 0.10 | 0.00 | 86 | 999.6 |
| 20260508070020 | 8 | 236 | 19.3 | 33.8 | 0.00 | 0.10 | 0.00 | 87 | 999.8 |
| 20260508064523 | 8 | 250 | 20.9 | 35.4 | 0.00 | 0.36 | 0.00 | 88 | 1000.0 |
| 20260508063016 | 8 | 249 | 27.4 | 46.7 | 0.00 | 0.36 | 0.00 | 85 | 999.9 |
| 20260508061513 | 9 | 254 | 27.4 | 38.6 | 0.00 | 0.36 | 0.00 | 81 | 999.9 |
| 20260508060011 | 9 | 246 | 11.3 | 30.6 | 0.00 | 0.36 | 0.00 | 82 | 1000.0 |
| 20260508054509 | 9 | 254 | 20.9 | 37.0 | 0.00 | 0.51 | 0.00 | 84 | 999.9 |
| 20260508053007 | 9 | 265 | 8.0 | 35.4 | 0.00 | 0.51 | 0.00 | 86 | 999.9 |
| 20260508051504 | 8 | 276 | 16.1 | 0.0 | 0.00 | 0.00 | 0.00 | 88 | 999.9 |
| 20260508050002 | 8 | 222 | 14.5 | 32.2 | 0.00 | 0.51 | 0.00 | 90 | 999.7 |
| 20260508044600 | 8 | 233 | 17.7 | 38.6 | 0.00 | 2.90 | 0.00 | 90 | 999.5 |
| 20260508043159 | 9 | 268 | 19.3 | 38.6 | 0.00 | 2.90 | 0.00 | 91 | 999.6 |
| 20260508041600 | 9 | 247 | 20.9 | 32.2 | 0.00 | 2.90 | 0.00 | 92 | 999.5 |
| 20260508040052 | 9 | 256 | 17.7 | 33.8 | 0.00 | 2.90 | 0.00 | 93 | 999.4 |
| 20260508034549 | 9 | 251 | 17.7 | 35.4 | 0.00 | 3.15 | 0.00 | 93 | 999.4 |
| 20260508033047 | 10 | 277 | 17.7 | 35.4 | 0.00 | 3.15 | 0.00 | 93 | 999.3 |
| 20260508031543 | 10 | 228 | 17.7 | 33.8 | 0.03 | 3.15 | 0.00 | 93 | 999.2 |
| 20260508030043 | 10 | 242 | 17.7 | 33.8 | 0.03 | 3.15 | 0.00 | 93 | 999.2 |
| 20260508024537 | 10 | 249 | 20.9 | 35.4 | 0.05 | 3.15 | 3.15 | 93 | 999.0 |
| 20260508023036 | 10 | 262 | 20.9 | 35.4 | 0.05 | 3.15 | 3.15 | 93 | 998.8 |
| 20260508021540 | 10 | 254 | 20.9 | 32.2 | 0.05 | 3.12 | 3.12 | 93 | 998.9 |
| 20260508020043 | 10 | 266 | 20.9 | 41.8 | 0.05 | 3.12 | 3.12 | 93 | 999.0 |
| 20260508014530 | 10 | 262 | 14.5 | 35.4 | 0.03 | 3.10 | 3.10 | 93 | 999.2 |
| 20260508013027 | 10 | 243 | 14.5 | 45.1 | 0.03 | 3.10 | 3.10 | 93 | 999.2 |
| 20260508011525 | 10 | 289 | 16.1 | 30.6 | 0.00 | 3.07 | 3.07 | 93 | 999.5 |
| 20260508010024 | 11 | 225 | 11.3 | 29.0 | 0.00 | 3.07 | 3.07 | 92 | 999.6 |
| 20260508004522 | 11 | 210 | 12.9 | 29.0 | 0.00 | 3.07 | 3.07 | 90 | 999.3 |
| 20260508003018 | 11 | 309 | 12.9 | 35.4 | 0.00 | 3.07 | 3.07 | 88 | 999.7 |
| 20260508001534 | 12 | 239 | 20.9 | 35.4 | 0.00 | 3.07 | 3.07 | 83 | 999.5 |
| 20260508000013 | 12 | 238 | 14.5 | 30.6 | 0.00 | 3.07 | 3.07 | 83 | 999.3 |
| 20260507234515 | 12 | 290 | 14.5 | 32.2 | 0.00 | 3.07 | 3.07 | 83 | 999.2 |
| 20260507233014 | 12 | 222 | 20.9 | 40.2 | 0.00 | 3.07 | 3.07 | 83 | 999.4 |
| 20260507231507 | 12 | 259 | 12.9 | 30.6 | 0.00 | 3.07 | 3.07 | 85 | 999.4 |
| 20260507230007 | 12 | 259 | 12.9 | 29.0 | 0.00 | 3.07 | 3.07 | 86 | 999.6 |
| 20260507224504 | 12 | 238 | 17.7 | 38.6 | 0.00 | 3.07 | 3.07 | 85 | 1000.0 |
| 20260507223100 | 12 | 261 | 19.3 | 33.8 | 0.00 | 3.07 | 3.07 | 84 | 999.7 |
| 20260507221558 | 12 | 212 | 16.1 | 29.0 | 0.00 | 3.07 | 3.07 | 84 | 999.5 |
| 20260507220055 | 13 | 347 | 14.5 | 29.0 | 0.00 | 3.07 | 3.07 | 81 | 999.3 |
| 20260507214559 | 13 | 237 | 14.5 | 29.0 | 0.00 | 3.07 | 3.07 | 79 | 999.0 |
| 20260507213053 | 13 | 297 | 6.4 | 19.3 | 0.00 | 3.07 | 3.07 | 79 | 999.0 |
| 20260507211551 | 13 | 265 | 11.3 | 29.0 | 0.00 | 3.07 | 3.07 | 78 | 999.3 |
| 20260507210052 | 13 | 282 | 14.5 | 37.0 | 0.00 | 3.07 | 3.07 | 76 | 999.1 |
| 20260507204553 | 13 | 265 | 11.3 | 35.4 | 0.00 | 3.07 | 3.07 | 76 | 999.3 |
| 20260507203049 | 14 | 233 | 14.5 | 30.6 | 0.00 | 3.07 | 3.07 | 75 | 999.2 |
| 20260507201552 | 14 | 250 | 11.3 | 25.7 | 0.00 | 3.07 | 3.07 | 74 | 998.9 |
| 20260507200043 | 14 | 244 | 16.1 | 35.4 | 0.00 | 3.07 | 3.07 | 74 | 997.9 |
| 20260507194541 | 14 | 249 | 14.5 | 32.2 | 0.00 | 3.07 | 3.07 | 74 | 997.3 |
| 20260507193039 | 14 | 237 | 14.5 | 27.4 | 0.00 | 3.07 | 3.07 | 75 | 997.6 |
| 20260507191538 | 14 | 269 | 14.5 | 29.0 | 0.00 | 3.07 | 3.07 | 75 | 997.6 |
| 20260507190037 | 14 | 243 | 12.9 | 27.4 | 0.00 | 3.07 | 3.07 | 75 | 998.7 |
| 20260507184536 | 15 | 234 | 8.0 | 29.0 | 0.00 | 3.07 | 3.07 | 76 | 999.2 |
| 20260507183037 | 15 | 271 | 11.3 | 32.2 | 0.00 | 3.07 | 3.07 | 76 | 999.2 |
| 20260507181534 | 15 | 276 | 12.9 | 29.0 | 0.00 | 3.07 | 3.07 | 76 | 1000.2 |
| 20260507180037 | 14 | 241 | 16.1 | 27.4 | 0.00 | 3.07 | 3.07 | 78 | 1000.8 |
| 20260507174541 | 14 | 294 | 9.7 | 27.4 | 0.00 | 3.07 | 3.07 | 78 | 1000.0 |
| 20260507173035 | 14 | 255 | 9.7 | 20.9 | 0.00 | 3.07 | 3.07 | 80 | 999.0 |
| 20260507171536 | 14 | 256 | 4.8 | 11.3 | 0.00 | 3.07 | 3.07 | 80 | 998.7 |
| 20260507170041 | 14 | 239 | 9.7 | 27.4 | 0.00 | 3.07 | 3.07 | 79 | 999.4 |
| 20260507164530 | 14 | 271 | 14.5 | 32.2 | 0.00 | 3.07 | 3.07 | 78 | 1000.4 |
| 20260507163025 | 14 | 261 | 14.5 | 38.6 | 0.00 | 3.07 | 3.07 | 79 | 1000.7 |
| 20260507161521 | 15 | 247 | 16.1 | 27.4 | 0.00 | 3.07 | 3.07 | 80 | 999.5 |
| 20260507160019 | 15 | 260 | 14.5 | 29.0 | 0.00 | 3.07 | 3.07 | 82 | 998.7 |
| 20260507154517 | 15 | 256 | 8.0 | 16.1 | 0.00 | 3.07 | 3.07 | 85 | 999.0 |
| 20260507153019 | 15 | 240 | 11.3 | 25.7 | 0.00 | 3.07 | 3.07 | 84 | 999.5 |
| 20260507151515 | 15 | 273 | 11.3 | 27.4 | 0.00 | 3.07 | 3.07 | 84 | 999.1 |
| 20260507150015 | 15 | 252 | 16.1 | 29.0 | 0.00 | 3.07 | 3.07 | 85 | 999.5 |